This demonstration page uses our WeatherBlox Daily Observations layout. Learn more.

39.92423, -83.80882

Hourly Observations for July 28, 2016

Temp ( °F °C ) Dew Point ( °F °C ) Humidity (%) Winds ( mph kmh ) Pressure ( in mb ) Visibility ( mi km ) Precip ( " mm )
12:56 am 00:56 Cloudy 74 23.3 69 20.6 85 85 WNW 3 6 29.93 1014 10 16.0934 0 0
1:56 am 01:56 Mostly Cloudy 74 23.3 66 18.9 76 76 Calm 29.93 1014 10 16.0934 0 0
2:56 am 02:56 Mostly Clear 72 22.2 68 20 87 87 WSW 3 6 29.91 1013 10 16.0934 0 0
3:56 am 03:56 Mostly Cloudy 73 22.8 66 18.9 79 79 NW 5 7 29.9 1013 10 16.0934 0 0
4:56 am 04:56 Clear 71 21.7 68 20 90 90 Calm 29.88 1012 10 16.0934 0 0
5:56 am 05:56 Clear 71 21.7 68 20 90 90 SSE 3 6 29.88 1012 10 16.0934 0 0
6:56 am 06:56 Cloudy 72 22.2 67 19.4 84 84 SSW 6 9 29.91 1013 10 16.0934 0 0
7:56 am 07:56 Cloudy with Light Rain 71 21.7 69 20.6 94 94 SW 10 17 29.92 1013 10 16.0934 0 0
8:18 am 08:18 Mostly Cloudy 72 22 70 21 94 94 SW 8 13 29.91 1013 9 14.48406 0.01 0.254
8:56 am 08:56 Partly Cloudy 71 21.7 70 21.1 96 96 W 5 7 29.93 1013 8 12.87472 0.01 0.254
9:34 am 09:34 Mostly Cloudy 72 22 70 21 94 94 Calm 29.91 1013 9 14.48406 0 0
9:56 am 09:56 Cloudy 73 22.8 71 21.7 94 94 Calm 29.91 1013 10 16.0934 0 0
10:37 am 10:37 Mostly Cloudy 73 23 72 22 94 94 W 5 7 29.91 1013 10 16.0934 0 0
10:56 am 10:56 Cloudy 74 23.3 71 21.7 91 91 WSW 9 15 29.91 1013 10 16.0934 0 0
11:09 am 11:09 Cloudy 73 23 72 22 94 94 W 9 15 29.91 1013 10 16.0934 0 0
11:28 am 11:28 Cloudy with Light Rain 73 23 72 22 94 94 SW 8 13 29.91 1013 10 16.0934 0 0.0254
11:53 am 11:53 Cloudy 73 23 72 22 94 94 WSW 7 11 29.91 1013 10 16.0934 0 0.0254
11:56 am 11:56 Cloudy with Light Rain 74 23.3 71 21.7 91 91 WSW 8 13 29.92 1013 10 16.0934 0 0.0254
12:11 pm 12:11 Cloudy with Light Rain 75 24 72 22 89 89 SW 6 9 29.91 1013 10 16.0934 0 0.0254
12:56 pm 12:56 Cloudy 76 24.4 72 22.2 88 88 WSW 3 6 29.9 1013 10 16.0934 0 0.0254
1:32 pm 13:32 Mostly Cloudy 77 25 72 22 83 83 VRB 3 6 29.88 1012 10 16.0934 0 0
1:39 pm 13:39 Mostly Cloudy 77 25 72 22 83 83 WSW 5 7 29.88 1012 10 16.0934 0 0
1:48 pm 13:48 Mostly Cloudy 79 26 72 22 79 79 WSW 6 9 29.85 1011 10 16.0934 0 0
1:56 pm 13:56 Partly Cloudy 78 25.6 72 22.2 82 82 SW 6 9 29.89 1012 10 16.0934 0 0
2:20 pm 14:20 Mostly Cloudy 81 27 72 22 74 74 VRB 5 7 29.85 1011 10 16.0934 0 0
2:56 pm 14:56 Mostly Cloudy 81 27.2 72 22.2 74 74 VRB 6 9 29.88 1012 10 16.0934 0 0
3:06 pm 15:06 Mostly Cloudy 81 27 70 21 70 70 W 6 9 29.85 1011 10 16.0934 0 0
3:56 pm 15:56 Mostly Cloudy 81 27.2 71 21.7 72 72 W 6 9 29.87 1011 10 16.0934 0 0
4:56 pm 16:56 Sunny 82 27.8 69 20.6 65 65 W 5 7 29.85 1011 10 16.0934 0 0
5:56 pm 17:56 Mostly Sunny 80 26.7 71 21.7 74 74 SSW 5 7 29.86 1011 10 16.0934 0 0
6:56 pm 18:56 Sunny 81 27.2 71 21.7 72 72 SSW 5 7 29.86 1011 10 16.0934 0 0
7:56 pm 19:56 Sunny 79 26.1 72 22.2 79 79 SW 6 9 29.87 1012 10 16.0934 0 0
8:56 pm 20:56 Cloudy 77 25 72 22.2 85 85 SW 6 9 29.88 1012 10 16.0934 0 0
9:56 pm 21:56 Mostly Clear 74 23.3 71 21.7 91 91 SSE 5 7 29.89 1012 10 16.0934 0 0
10:56 pm 22:56 Mostly Cloudy 74 23.3 70 21.1 88 88 SSW 3 6 29.91 1013 10 16.0934 0 0
11:46 pm 23:46 Clear 72 22 68 20 88 88 S 5 7 29.91 1013 10 16.0934 0 0
11:56 pm 23:56 Clear 70 21.1 68 20 93 93 ESE 5 7 N/A 10 16.0934 0 0

Powered by AerisWeather